This demonstration page uses our WeatherBlox Daily Observations layout. Learn more.

Left ArrowRight Arrow

Hourly Observations for October 19, 2018

Temp ( °F °C ) Dew Point ( °F °C ) Humidity (%) Winds ( mph kmh ) Pressure ( in mb ) Visibility ( mi km ) Precip ( " mm )
12:53 am 00:53 Cloudy 54 12.2 44 6.7 69 69 SSW 10 17 30.13 1020 10 16 0.00 0.03
1:53 am 01:53 Cloudy with Light Rain 52 11.1 47 8.3 83 83 SW 8 13 30.13 1020 9 14 0.01 0.25
2:06 am 02:06 Cloudy 52 11.1 48 8.9 86 86 SW 13 20 30.15 1021 10 16 0.00 0.03
2:17 am 02:17 Cloudy 52 11.1 48 8.9 86 86 SSW 12 19 30.09 1019 10 16 0.00 0.03
2:49 am 02:49 Cloudy 52 11 48 9 88 88 SSW 8 13 30.09 1019 10 16 0.00 0.03
2:53 am 02:53 Cloudy 52 11.1 48 8.9 86 86 SSW 9 15 30.10 1019 10 16 0.00 0.03
3:00 am 03:00 Cloudy 52 11 48 9 88 88 SSW 12 19 30.09 1019 10 16 0.00 0.00
3:53 am 03:53 Cloudy 52 11.1 48 8.9 86 86 SSW 8 13 30.08 1019 10 16 0.00 0.00
4:53 am 04:53 Cloudy 52 11.1 48 8.9 86 86 SSW 14 22 30.05 1018 10 16 0.00 0.00
5:30 am 05:30 Partly Cloudy 52 11 48 9 88 88 SSW 12 19 30.06 1018 10 16 0.00 0.00
5:53 am 05:53 Clear 51 10.6 48 8.9 89 89 SSW 12 19 30.03 1017 10 16 0.00 0.00
6:53 am 06:53 Clear 49 9.4 47 8.3 93 93 SSW 10 17 30.03 1017 10 16 0.00 0.00
7:53 am 07:53 Sunny 49 9.4 47 8.3 93 93 SSW 12 19 30.03 1017 10 16 0.00 0.00
8:53 am 08:53 Sunny 50 10 47 8.3 89 89 SW 10 17 30.05 1018 10 16 0.00 0.00
9:53 am 09:53 Sunny 53 11.7 48 8.9 83 83 WSW 15 24 30.06 1018 10 16 0.00 0.00
10:53 am 10:53 Sunny 57 13.9 48 8.9 72 72 WSW 12 19 30.06 1018 10 16 0.00 0.00
11:53 am 11:53 Sunny 62 16.7 47 8.3 58 58 W 12 19 30.06 1018 10 16 0.00 0.00
12:53 pm 12:53 Sunny 68 20 45 7.2 44 44 NW 12 19 30.06 1018 10 16 0.00 0.00
1:53 pm 13:53 Sunny 71 21.7 44 6.7 38 38 NNW 21 33 30.06 1018 10 16 0.00 0.00
2:53 pm 14:53 Sunny 73 22.8 43 6.1 34 34 N 23 37 30.06 1018 10 16 0.00 0.00
3:53 pm 15:53 Sunny 72 22.2 36 2.2 27 27 NNW 23 37 30.07 1018 10 16 0.00 0.00
4:53 pm 16:53 Sunny 70 21.1 35 1.7 28 28 N 21 33 30.09 1019 10 16 0.00 0.00
5:53 pm 17:53 Sunny 67 19.4 33 0.6 28 28 N 18 30 30.13 1020 10 16 0.00 0.00
6:53 pm 18:53 Clear 58 14.4 36 2.2 44 44 NNW 8 13 30.16 1021 10 16 0.00 0.00
7:53 pm 19:53 Clear 56 13.3 35 1.7 46 46 NW 8 13 30.19 1022 10 16 0.00 0.00
8:53 pm 20:53 Clear 47 8.3 34 1.1 61 61 WNW 5 7 30.22 1023 10 16 0.00 0.00
9:53 pm 21:53 Clear 50 10 35 1.7 57 57 NNW 9 15 30.23 1024 10 16 0.00 0.00
10:53 pm 22:53 Clear 45 7.2 35 1.7 68 68 NW 7 11 30.25 1025 10 16 0.00 0.00
11:53 pm 23:53 Hazy 43 6.1 34 1.1 71 71 WNW 7 11 30.26 1025 6 10 0.00 0.00

Powered by AerisWeather